DW9966 Weather Reports


time (UTC)temp
F
wind
direction
speed
knots
gust
knots
rain 1hr
in
rain 24hr
in
rain mn
in
humidity
%
barometer
mb
20260508023705 51 140 0.0 0.0 0.00 0.00 0.00 91 1013.6
20260508023205 51 126 0.0 0.0 0.00 0.00 0.00 91 1013.5
20260508022706 51 126 0.0 0.0 0.00 0.00 0.00 91 1013.4
20260508022205 51 126 0.0 0.0 0.00 0.00 0.00 91 1013.4
20260508021706 52 126 0.0 0.0 0.00 0.00 0.00 91 1013.4
20260508020705 52 126 0.0 0.0 0.00 0.00 0.00 91 1013.4
20260508020206 52 126 0.0 0.0 0.00 0.00 0.00 91 1013.4
20260508015705 52 126 0.0 0.9 0.00 0.00 0.00 91 1013.3
20260508014706 52 126 0.0 1.7 0.00 0.00 0.00 91 1013.4
20260508013705 52 103 0.0 0.9 0.00 0.00 0.00 91 1013.3
20260508013205 52 80 0.0 0.0 0.00 0.00 0.00 91 1013.4
20260508012705 52 45 0.0 0.0 0.00 0.00 0.00 91 1013.4
20260508012206 52 45 0.0 0.0 0.00 0.00 0.00 91 1013.5
20260508011706 52 45 0.0 0.0 0.00 0.00 0.00 91 1013.5
20260508011205 53 45 0.0 0.0 0.00 0.00 0.00 91 1013.4
20260508010706 53 45 0.0 0.0 0.00 0.00 0.00 91 1013.4
20260508010232 53 45 0.0 0.0 0.00 0.00 0.00 91 1013.4
20260508005706 53 45 0.0 0.0 0.00 0.00 0.00 91 1013.4
20260508005206 53 45 0.0 0.0 0.00 0.00 0.00 91 1013.5
20260508004705 53 45 0.0 0.0 0.00 0.00 0.00 91 1013.5
20260508004205 53 45 0.0 0.0 0.00 0.00 0.00 91 1013.5
20260508003705 53 45 0.0 0.0 0.00 0.00 0.00 90 1013.5
20260508003206 53 45 0.0 0.0 0.00 0.00 0.00 90 1013.4
20260508002206 53 45 0.0 0.0 0.00 0.00 0.00 90 1013.4
20260508001705 53 45 0.0 0.0 0.00 0.00 0.00 90 1013.4
20260508001233 53 45 0.0 0.0 0.00 0.00 0.00 90 1013.4
20260508000705 53 45 0.0 0.0 0.00 0.00 0.00 90 1013.4
20260508000206 53 45 0.0 0.0 0.00 0.00 0.00 90 1013.4
20260507235706 53 45 0.0 0.0 0.00 0.00 0.00 90 1013.4
20260507235205 53 45 0.0 0.0 0.00 0.00 0.00 89 1013.4
20260507234705 53 45 0.0 0.0 0.00 0.00 0.00 90 1013.4
20260507234207 53 45 0.0 0.0 0.00 0.00 0.00 90 1013.3
20260507233705 53 45 0.0 0.0 0.00 0.00 0.00 90 1013.3
20260507233206 53 45 0.0 0.0 0.00 0.00 0.00 89 1013.3
20260507232706 54 45 0.0 0.0 0.00 0.00 0.00 90 1013.4
20260507232206 54 45 0.0 0.0 0.00 0.00 0.00 90 1013.3
20260507231706 54 45 0.0 0.0 0.00 0.00 0.00 90 1013.4
20260507231206 54 45 0.0 0.9 0.00 0.00 0.00 90 1013.4
20260507230705 54 45 0.0 0.9 0.00 0.00 0.00 90 1013.4
20260507230205 54 45 0.0 0.9 0.00 0.00 0.00 90 1013.5
20260507225706 54 63 0.0 0.9 0.00 0.00 0.00 90 1013.5
20260507225206 53 63 0.0 0.9 0.00 0.00 0.00 89 1013.5
20260507224715 53 63 0.0 0.0 0.00 0.00 0.00 89 1013.5
20260507224206 53 63 0.0 0.0 0.00 0.00 0.00 89 1013.5
20260507223731 53 63 0.0 0.0 0.00 0.00 0.00 89 1013.5
20260507223205 53 63 0.0 0.0 0.00 0.00 0.00 89 1013.5
20260507222706 53 63 0.0 0.0 0.00 0.00 0.00 89 1013.5
20260507222205 53 63 0.0 0.0 0.00 0.00 0.00 89 1013.5
20260507221706 54 63 0.0 0.0 0.00 0.00 0.00 89 1013.4
20260507221205 54 63 0.0 0.0 0.00 0.00 0.00 89 1013.4
20260507220705 54 63 0.0 0.0 0.00 0.00 0.00 89 1013.4
20260507220227 54 63 0.0 0.0 0.00 0.00 0.00 89 1013.4
20260507215706 54 63 0.0 0.0 0.00 0.00 0.00 89 1013.4
20260507215205 54 63 0.0 0.0 0.00 0.00 0.00 88 1013.3
20260507214706 54 63 0.0 0.0 0.00 0.00 0.00 89 1013.3
20260507214206 54 63 0.0 0.0 0.00 0.00 0.00 88 1013.3
20260507213705 54 63 0.0 0.0 0.00 0.00 0.00 88 1013.3
20260507213205 54 63 0.0 0.0 0.00 0.00 0.00 88 1013.2
20260507212706 54 63 0.0 0.0 0.00 0.00 0.00 88 1013.2
20260507212205 54 63 0.0 0.0 0.00 0.00 0.00 88 1013.1
20260507211705 54 63 0.0 0.0 0.00 0.00 0.00 88 1013.1
20260507211205 54 63 0.0 0.0 0.00 0.00 0.00 87 1013.2
20260507210705 54 63 0.0 0.9 0.00 0.00 0.00 87 1013.1
20260507210206 54 63 0.0 0.9 0.00 0.00 0.00 87 1012.9
20260507204705 54 62 0.0 0.0 0.00 0.00 0.00 86 1012.7
20260507204206 55 62 0.0 0.0 0.00 0.00 0.00 87 1012.8
20260507203705 55 62 0.0 0.0 0.00 0.00 0.00 86 1012.8
20260507203205 55 62 0.0 0.0 0.00 0.00 0.00 86 1012.7
20260507202705 55 62 0.0 0.0 0.00 0.00 0.00 86 1012.8
20260507202206 55 62 0.0 0.0 0.00 0.00 0.00 86 1012.7
20260507201705 56 59 0.0 0.0 0.00 0.00 0.00 85 1012.7
20260507201206 56 59 0.0 0.0 0.00 0.00 0.00 86 1012.7
20260507200706 56 59 0.0 0.0 0.00 0.00 0.00 85 1012.6
20260507200206 56 59 0.0 0.0 0.00 0.00 0.00 85 1012.5
20260507195706 56 59 0.0 0.0 0.00 0.00 0.00 85 1012.6
20260507195206 56 59 0.0 0.0 0.00 0.00 0.00 85 1012.6
20260507194706 56 59 0.0 0.0 0.00 0.00 0.00 85 1012.5
20260507194206 56 59 0.0 0.0 0.00 0.00 0.00 85 1012.6
20260507193727 56 59 0.0 0.0 0.00 0.00 0.00 85 1012.6
20260507193205 56 59 0.0 0.0 0.00 0.00 0.00 85 1012.6
20260507192705 56 59 0.0 0.0 0.00 0.00 0.00 85 1012.5
20260507192206 57 59 0.0 0.0 0.00 0.00 0.00 84 1012.5
20260507191706 57 59 0.0 0.0 0.00 0.00 0.00 84 1012.5
20260507191206 57 59 0.0 0.0 0.00 0.00 0.00 84 1012.4
20260507190205 57 59 0.0 0.0 0.00 0.00 0.00 84 1012.3
20260507185705 57 59 0.0 0.0 0.00 0.00 0.00 83 1012.3
20260507184707 58 59 0.0 0.0 0.00 0.00 0.00 83 1012.1
20260507184205 58 59 0.0 0.0 0.00 0.00 0.00 83 1012.1
20260507183706 58 59 0.0 0.0 0.00 0.00 0.00 82 1012.1
20260507183205 58 59 0.0 2.6 0.00 0.00 0.00 82 1012.0
20260507182706 58 59 0.0 2.6 0.00 0.00 0.00 82 1011.9
20260507182206 58 59 0.0 2.6 0.00 0.00 0.00 81 1011.8
20260507181705 59 59 0.9 2.6 0.00 0.00 0.00 81 1011.8
20260507181205 59 5 0.0 0.0 0.00 0.00 0.00 80 1011.8
20260507180705 59 73 0.0 1.7 0.00 0.00 0.00 80 1011.7
20260507175705 60 73 0.0 2.6 0.00 0.00 0.00 79 1011.5
20260507175205 60 73 0.0 2.6 0.00 0.00 0.00 79 1011.4
20260507174205 60 80 0.0 0.9 0.00 0.00 0.00 77 1011.5
20260507173706 60 80 0.0 3.5 0.00 0.00 0.00 77 1011.5
20260507173205 60 80 0.0 3.5 0.00 0.00 0.00 76 1011.5
20260507172705 61 80 1.7 3.5 0.00 0.00 0.00 77 1011.4
20260507172205 61 78 1.7 3.5 0.00 0.00 0.00 76 1011.3
20260507171706 61 73 1.7 6.1 0.00 0.00 0.00 76 1011.4
20260507171205 61 97 1.7 6.1 0.00 0.00 0.00 76 1011.3
20260507170706 61 101 2.6 6.1 0.00 0.00 0.00 76 1011.3
20260507170205 61 82 1.7 6.1 0.00 0.00 0.00 75 1011.3
20260507165706 61 71 0.9 1.7 0.00 0.00 0.00 76 1011.3
20260507165206 61 70 0.0 2.6 0.00 0.00 0.00 76 1011.4
20260507164706 61 69 0.9 2.6 0.00 0.00 0.00 76 1011.3
20260507164205 61 331 0.0 1.7 0.00 0.00 0.00 76 1011.3
20260507163706 61 329 0.0 0.9 0.00 0.00 0.00 76 1011.3
20260507162705 61 207 0.0 0.9 0.00 0.00 0.00 76 1011.3
20260507162206 61 207 0.0 0.9 0.00 0.00 0.00 75 1011.3
20260507161705 61 205 0.0 0.0 0.00 0.00 0.00 75 1011.3
20260507161205 61 205 0.0 0.0 0.00 0.00 0.00 74 1011.4
20260507160705 61 205 0.0 0.9 0.00 0.00 0.00 74 1011.3
20260507160205 61 218 0.0 0.9 0.00 0.00 0.00 73 1011.3
20260507155206 61 218 0.0 3.5 0.00 0.00 0.00 71 1011.3
20260507154206 61 215 0.0 3.5 0.00 0.00 0.00 71 1011.2
20260507153705 62 211 0.0 3.5 0.00 0.00 0.00 71 1011.2
20260507153206 62 211 0.9 3.5 0.00 0.00 0.00 72 1011.3
20260507152705 62 184 0.9 5.2 0.00 0.00 0.00 71 1011.3
20260507151706 62 191 1.7 4.3 0.00 0.00 0.00 70 1011.2
20260507151205 62 175 0.9 5.2 0.00 0.00 0.00 70 1011.2
20260507150706 62 200 0.9 5.2 0.00 0.00 0.00 70 1011.3
20260507150206 62 210 1.7 6.1 0.00 0.00 0.00 69 1011.3
20260507145205 63 204 0.9 6.1 0.00 0.00 0.00 69 1011.2
20260507144705 63 188 0.9 2.6 0.00 0.00 0.00 68 1011.2
20260507144206 64 215 0.0 2.6 0.00 0.00 0.00 66 1011.2
20260507143705 64 237 0.0 2.6 0.00 0.00 0.00 65 1011.2
20260507143206 64 243 0.0 3.5 0.00 0.00 0.00 64 1011.2
20260507142706 64 226 0.9 5.2 0.00 0.00 0.00 63 1011.1
20260507142207 64 227 0.9 6.1 0.00 0.00 0.00 66 1011.0
20260507141206 64 299 1.7 8.7 0.00 0.00 0.00 61 1011.0
20260507140706 65 296 3.5 8.7 0.00 0.00 0.00 60 1011.0
20260507135706 65 302 1.7 6.1 0.00 0.00 0.00 64 1011.1
20260507135205 65 264 0.9 5.2 0.00 0.00 0.00 64 1011.1
20260507134706 65 279 0.9 5.2 0.00 0.00 0.00 63 1011.1
20260507134205 65 263 0.9 5.2 0.00 0.00 0.00 64 1011.0
20260507133205 65 275 0.0 1.7 0.00 0.00 0.00 65 1011.0
20260507132206 65 224 0.0 5.2 0.00 0.00 0.00 67 1011.0
20260507131705 65 219 0.0 5.2 0.00 0.00 0.00 66 1011.1
20260507131206 65 228 0.9 5.2 0.00 0.00 0.00 66 1011.1
20260507130706 65 216 0.9 4.3 0.00 0.00 0.00 66 1011.1
20260507130206 66 200 0.9 3.5 0.00 0.00 0.00 67 1011.1
20260507125706 66 219 0.9 3.5 0.00 0.00 0.00 66 1011.2
20260507125206 65 221 0.0 3.5 0.00 0.00 0.00 68 1011.1
20260507124206 65 235 0.0 2.6 0.00 0.00 0.00 69 1011.1
20260507123205 64 219 0.0 4.3 0.00 0.00 0.00 71 1011.1
20260507122706 64 217 0.9 2.6 0.00 0.00 0.00 72 1011.3
20260507122205 64 216 0.0 2.6 0.00 0.00 0.00 72 1011.3
20260507121705 63 226 0.0 2.6 0.00 0.00 0.00 72 1011.2
20260507121205 63 217 0.0 1.7 0.00 0.00 0.00 73 1011.5
20260507120705 63 222 0.0 0.9 0.00 0.00 0.00 73 1011.4
20260507120227 63 239 0.0 2.6 0.00 0.00 0.00 73 1011.4
20260507115705 63 225 0.0 5.2 0.00 0.00 0.00 73 1011.5
20260507115205 64 235 0.0 5.2 0.00 0.00 0.00 73 1011.5
20260507114705 64 243 0.9 5.2 0.00 0.00 0.00 72 1011.5
20260507113234 64 281 0.9 9.6 0.00 0.00 0.00 69 1011.3
20260507112705 64 279 3.5 9.6 0.00 0.00 0.00 68 1011.3
20260507112205 64 284 4.3 9.6 0.00 0.00 0.00 68 1011.3
20260507111721 65 281 3.5 8.7 0.00 0.00 0.00 68 1011.3
20260507111206 65 296 3.5 8.7 0.00 0.00 0.00 68 1011.3
20260507110705 65 266 4.3 10.4 0.00 0.00 0.00 68 1011.2
20260507110206 65 266 4.3 10.4 0.00 0.00 0.00 67 1011.2
20260507105706 65 289 5.2 10.4 0.00 0.00 0.00 67 1011.1
20260507105206 65 265 5.2 9.6 0.00 0.00 0.00 67 1011.0
20260507104706 65 269 5.2 9.6 0.00 0.00 0.00 66 1010.9
20260507104206 65 286 5.2 9.6 0.00 0.00 0.00 65 1010.9
20260507103705 66 259 4.3 9.6 0.00 0.00 0.00 65 1010.9
20260507103205 66 290 1.7 7.8 0.00 0.00 0.00 64 1010.9
20260507102706 66 266 0.9 7.8 0.00 0.00 0.00 65 1010.9
20260507102205 66 217 0.9 7.8 0.00 0.00 0.00 64 1010.9
20260507101705 66 231 1.7 6.1 0.00 0.00 0.00 64 1010.8
20260507101206 66 225 1.7 6.1 0.00 0.00 0.00 64 1010.8
20260507100732 66 220 0.9 7.0 0.00 0.00 0.00 63 1010.9
20260507095706 67 226 0.9 7.0 0.00 0.00 0.00 63 1010.7
20260507095206 67 236 1.7 5.2 0.00 0.00 0.00 63 1010.6
20260507094706 66 223 0.9 6.1 0.00 0.00 0.00 64 1010.6
20260507094206 66 265 0.9 7.8 0.00 0.00 0.00 64 1010.6
20260507093706 66 213 0.9 7.8 0.00 0.00 0.00 65 1010.6
20260507093205 66 220 0.9 7.8 0.00 0.00 0.00 63 1010.7
20260507092206 66 221 2.6 7.8 0.00 0.00 0.00 64 1010.6
20260507091706 66 284 4.3 7.8 0.00 0.00 0.00 63 1010.5
20260507091232 67 279 3.5 7.8 0.00 0.00 0.00 63 1010.5
20260507090705 67 313 3.5 7.8 0.00 0.00 0.00 63 1010.3
20260507090206 67 291 1.7 6.1 0.00 0.00 0.00 62 1010.3
20260507085705 67 217 0.9 6.1 0.00 0.00 0.00 63 1010.3
20260507085205 67 246 1.7 7.8 0.00 0.00 0.00 63 1010.2
20260507084705 66 263 2.6 7.8 0.00 0.00 0.00 63 1010.2
20260507084206 66 285 2.6 7.8 0.00 0.00 0.00 63 1010.3
20260507083723 66 252 2.6 7.0 0.00 0.00 0.00 63 1010.3
20260507083206 66 247 0.9 6.1 0.00 0.00 0.00 62 1010.2
20260507082705 66 274 0.9 6.1 0.00 0.00 0.00 62 1010.1
20260507081205 66 236 0.9 5.2 0.00 0.00 0.00 63 1010.1
20260507080705 66 282 0.9 6.1 0.00 0.00 0.00 62 1010.1
20260507080206 66 228 0.9 7.0 0.00 0.00 0.00 63 1010.0
20260507075706 66 254 2.6 7.0 0.00 0.00 0.00 64 1010.0
20260507074706 65 273 2.6 7.0 0.00 0.00 0.00 66 1009.9
20260507074206 64 292 1.7 6.1 0.00 0.00 0.00 66 1009.9
20260507073706 64 240 2.6 6.1 0.00 0.00 0.00 66 1009.9
20260507073205 64 284 1.7 6.1 0.00 0.00 0.00 66 1009.9
20260507072706 64 284 0.9 4.3 0.00 0.00 0.00 66 1009.8
20260507072205 64 265 0.9 4.3 0.00 0.00 0.00 66 1009.8
20260507071705 64 245 0.9 4.3 0.00 0.00 0.00 66 1009.8
20260507071205 64 234 0.9 4.3 0.00 0.00 0.00 65 1009.7
20260507070705 64 224 0.9 4.3 0.00 0.00 0.00 66 1009.7
20260507065705 64 236 0.9 7.0 0.00 0.00 0.00 66 1009.5
20260507065205 64 243 1.7 7.0 0.00 0.00 0.00 66 1009.4
20260507064706 64 246 1.7 7.0 0.00 0.00 0.00 65 1009.5
20260507064206 64 231 0.9 7.0 0.00 0.00 0.00 65 1009.5
20260507063706 64 232 1.7 7.0 0.00 0.00 0.00 64 1009.5
20260507063206 64 275 1.7 6.1 0.00 0.00 0.00 64 1009.5
20260507062205 64 245 0.9 5.2 0.00 0.00 0.00 64 1009.4
20260507061206 64 284 0.9 5.2 0.00 0.00 0.00 66 1009.2
20260507055206 62 220 0.9 6.1 0.00 0.00 0.00 68 1009.0
20260507054705 62 223 0.9 6.1 0.00 0.00 0.00 68 1009.0
20260507053705 62 260 1.7 7.0 0.00 0.00 0.00 69 1008.9
20260507053230 62 208 0.9 5.2 0.00 0.00 0.00 69 1008.8
20260507052705 62 221 0.9 5.2 0.00 0.00 0.00 71 1008.8
20260507052205 61 203 0.9 5.2 0.00 0.00 0.00 70 1008.9
20260507051706 61 217 0.9 5.2 0.00 0.00 0.00 71 1008.8
20260507051205 61 227 0.9 5.2 0.00 0.00 0.00 71 1008.7
20260507050705 61 217 0.0 5.2 0.00 0.00 0.00 71 1008.7
20260507050206 61 238 0.9 5.2 0.00 0.00 0.00 72 1008.7
20260507045705 61 248 0.9 6.1 0.00 0.00 0.00 71 1008.7
20260507044705 60 239 1.7 6.1 0.00 0.00 0.00 72 1008.6
20260507044206 60 260 0.9 5.2 0.00 0.00 0.00 73 1008.5
20260507043705 60 256 0.9 5.2 0.00 0.00 0.00 73 1008.5
20260507043205 60 248 0.9 3.5 0.00 0.00 0.00 74 1008.4
20260507042206 59 241 0.0 0.9 0.00 0.00 0.00 73 1008.3
20260507041705 59 246 0.0 6.1 0.00 0.00 0.00 73 1008.2
20260507041205 59 236 0.9 6.1 0.00 0.00 0.00 73 1008.2
20260507040706 59 231 0.9 6.1 0.00 0.00 0.00 73 1008.1
20260507040205 59 265 0.0 2.6 0.00 0.00 0.00 73 1008.2
20260507035705 59 297 0.0 2.6 0.00 0.00 0.00 73 1008.2
20260507035223 59 254 0.0 1.7 0.00 0.00 0.00 73 1008.1
20260507034705 59 253 0.0 0.9 0.00 0.00 0.00 73 1008.1
20260507034206 59 238 0.0 2.6 0.00 0.00 0.00 73 1008.1
20260507033705 59 242 0.0 2.6 0.00 0.00 0.00 73 1008.1
20260507032705 59 218 0.0 2.6 0.00 0.00 0.00 73 1007.9
20260507031705 60 234 0.0 4.3 0.00 0.00 0.00 72 1007.9
20260507031205 60 215 0.0 6.1 0.00 0.00 0.00 72 1007.9
20260507030706 60 223 0.9 6.1 0.00 0.00 0.00 72 1008.0
20260507025705 59 217 0.9 6.1 0.00 0.00 0.00 73 1008.1
20260507024705 59 215 0.0 3.5 0.00 0.00 0.00 73 1008.1
20260507024205 59 221 0.0 1.7 0.00 0.00 0.00 73 1008.2